Year,Month,Day,Hour,Minute,Value (Times are PST for temperature in C)
2016,07,24,00,00,15.50
2016,07,24,00,01,15.40
2016,07,24,00,02,15.40
2016,07,24,00,03,15.30
2016,07,24,00,04,15.30
2016,07,24,00,05,15.30
2016,07,24,00,06,15.30
2016,07,24,00,07,15.20
2016,07,24,00,08,15.20
2016,07,24,00,09,15.20
2016,07,24,00,10,15.20
2016,07,24,00,11,15.20
2016,07,24,00,12,15.20
2016,07,24,00,13,15.20
2016,07,24,00,14,15.30
2016,07,24,00,15,15.30
2016,07,24,00,16,15.30
2016,07,24,00,17,15.40
2016,07,24,00,18,15.40
2016,07,24,00,19,15.40
2016,07,24,00,20,15.40
2016,07,24,00,21,15.50
2016,07,24,00,22,15.50
2016,07,24,00,23,15.50
2016,07,24,00,24,15.50
2016,07,24,00,25,15.50
2016,07,24,00,26,15.40
2016,07,24,00,27,15.40
2016,07,24,00,28,15.40
2016,07,24,00,29,15.30
2016,07,24,00,30,15.30
2016,07,24,00,31,15.20
2016,07,24,00,32,15.20
2016,07,24,00,33,15.10
2016,07,24,00,34,15.10
2016,07,24,00,35,15.10
2016,07,24,00,36,15.10
2016,07,24,00,37,15.00
2016,07,24,00,38,14.90
2016,07,24,00,39,14.90
2016,07,24,00,40,14.90
2016,07,24,00,41,14.80
2016,07,24,00,42,14.80
2016,07,24,00,43,14.80
2016,07,24,00,44,14.80
2016,07,24,00,45,14.80
2016,07,24,00,46,14.70
2016,07,24,00,47,14.70
2016,07,24,00,48,14.70
2016,07,24,00,49,14.70
2016,07,24,00,50,14.70
2016,07,24,00,51,14.60
2016,07,24,00,52,14.60
2016,07,24,00,53,14.60
2016,07,24,00,54,14.60
2016,07,24,00,55,14.60
2016,07,24,00,56,14.60
2016,07,24,00,57,14.60
2016,07,24,00,58,14.50
2016,07,24,00,59,14.50
2016,07,24,01,00,14.50
2016,07,24,01,01,14.40
2016,07,24,01,02,14.40
2016,07,24,01,03,14.40
2016,07,24,01,04,14.40
2016,07,24,01,05,14.40
2016,07,24,01,06,14.40
2016,07,24,01,07,14.40
2016,07,24,01,08,14.40
2016,07,24,01,09,14.30
2016,07,24,01,10,14.30
2016,07,24,01,11,14.40
2016,07,24,01,12,14.40
2016,07,24,01,13,14.40
2016,07,24,01,14,14.40
2016,07,24,01,15,14.40
2016,07,24,01,16,14.50
2016,07,24,01,17,14.50
2016,07,24,01,18,14.50
2016,07,24,01,19,14.50
2016,07,24,01,20,14.50
2016,07,24,01,21,14.50
2016,07,24,01,22,14.50
2016,07,24,01,23,14.40
2016,07,24,01,24,14.40
2016,07,24,01,25,14.40
2016,07,24,01,26,14.40
2016,07,24,01,27,14.30
2016,07,24,01,28,14.30
2016,07,24,01,29,14.30
2016,07,24,01,30,14.30
2016,07,24,01,31,14.30
2016,07,24,01,32,14.20
2016,07,24,01,33,14.20
2016,07,24,01,34,14.20
2016,07,24,01,35,14.20
2016,07,24,01,36,14.20
2016,07,24,01,37,14.20
2016,07,24,01,38,14.20
2016,07,24,01,39,14.20
2016,07,24,01,40,14.20
2016,07,24,01,41,14.20
2016,07,24,06,46,14.10
2016,07,24,06,47,14.20
2016,07,24,06,48,14.20
2016,07,24,06,49,14.30
2016,07,24,06,50,14.30
2016,07,24,06,51,14.40
2016,07,24,06,52,14.40
2016,07,24,06,53,14.50
2016,07,24,06,54,14.50
2016,07,24,06,55,14.60
2016,07,24,06,56,14.70
2016,07,24,06,57,14.70
2016,07,24,06,58,14.70
2016,07,24,06,59,14.80
2016,07,24,07,00,14.80
2016,07,24,07,01,14.80
2016,07,24,07,02,14.90
2016,07,24,07,03,14.90
2016,07,24,07,04,14.90
2016,07,24,07,05,15.00
2016,07,24,07,06,15.00
2016,07,24,07,07,15.10
2016,07,24,07,08,15.10
2016,07,24,07,09,15.20
2016,07,24,07,10,15.20
2016,07,24,07,11,15.30
2016,07,24,07,12,15.30
2016,07,24,07,13,15.40
2016,07,24,07,14,15.50
2016,07,24,07,15,15.50
2016,07,24,07,16,15.60
2016,07,24,07,17,15.60
2016,07,24,07,18,15.70
2016,07,24,07,19,15.80
2016,07,24,07,20,15.80
2016,07,24,07,21,16.00
2016,07,24,07,22,16.10
2016,07,24,07,23,16.30
2016,07,24,07,24,16.40
2016,07,24,07,25,16.50
2016,07,24,07,26,16.60
2016,07,24,07,27,16.70
2016,07,24,07,28,16.80
2016,07,24,07,29,16.80
2016,07,24,07,30,16.80
2016,07,24,07,31,16.90
2016,07,24,07,32,16.90
2016,07,24,07,33,16.90
2016,07,24,07,34,16.90
2016,07,24,07,35,17.00
2016,07,24,07,36,17.00
2016,07,24,07,37,17.10
2016,07,24,07,38,17.10
2016,07,24,07,39,17.10
2016,07,24,07,40,17.20
2016,07,24,07,41,17.30
2016,07,24,07,42,17.40
2016,07,24,07,43,17.40
2016,07,24,07,44,17.50
2016,07,24,07,45,17.50
2016,07,24,07,46,17.60
2016,07,24,07,47,17.60
2016,07,24,07,48,17.60
2016,07,24,07,49,17.60
2016,07,24,07,50,17.60
2016,07,24,07,51,17.50
2016,07,24,07,52,17.50
2016,07,24,07,53,17.40
2016,07,24,07,54,17.50
2016,07,24,07,55,17.50
2016,07,24,07,56,17.40
2016,07,24,07,57,17.40
2016,07,24,07,58,17.40
2016,07,24,07,59,17.40
2016,07,24,08,00,17.40
2016,07,24,08,01,17.50
2016,07,24,08,02,17.50
2016,07,24,08,03,17.50
2016,07,24,08,04,17.50
2016,07,24,08,05,17.50
2016,07,24,08,06,17.50
2016,07,24,08,07,17.50
2016,07,24,08,08,17.50
2016,07,24,08,09,17.40
2016,07,24,08,10,17.40
2016,07,24,08,11,17.40
2016,07,24,08,12,17.40
2016,07,24,08,13,17.40
2016,07,24,08,14,17.40
2016,07,24,08,15,17.40
2016,07,24,08,16,17.40
2016,07,24,08,17,17.40
2016,07,24,08,18,17.40
2016,07,24,08,19,17.30
2016,07,24,08,20,17.30
2016,07,24,08,21,17.20
2016,07,24,08,22,17.10
2016,07,24,08,23,17.10
2016,07,24,08,24,17.00
2016,07,24,08,25,17.00
2016,07,24,08,26,17.10
2016,07,24,08,27,17.10
2016,07,24,08,28,17.20
2016,07,24,08,29,17.40
2016,07,24,08,30,17.50
2016,07,24,08,31,17.50
2016,07,24,08,32,17.60
2016,07,24,08,33,17.60
2016,07,24,08,34,17.70
2016,07,24,08,35,17.70
2016,07,24,08,36,17.80
2016,07,24,08,37,17.80
2016,07,24,08,38,17.80
2016,07,24,08,39,17.90
2016,07,24,08,40,18.00
2016,07,24,08,41,18.00
2016,07,24,08,42,18.10
2016,07,24,08,43,18.10
2016,07,24,08,44,18.10
2016,07,24,08,45,18.20
2016,07,24,08,46,18.20
2016,07,24,08,47,18.30
2016,07,24,08,48,18.30
2016,07,24,08,49,18.40
2016,07,24,08,50,18.40
2016,07,24,08,51,18.60
2016,07,24,08,52,18.70
2016,07,24,08,53,18.80
2016,07,24,08,54,18.90
2016,07,24,08,55,19.10
2016,07,24,08,56,19.20
2016,07,24,08,57,19.30
2016,07,24,08,58,19.50
2016,07,24,08,59,19.60
2016,07,24,09,00,19.80
2016,07,24,09,01,19.80
2016,07,24,09,02,19.90
2016,07,24,09,03,19.90
2016,07,24,09,04,20.00
2016,07,24,09,05,20.10
2016,07,24,09,06,20.20
2016,07,24,09,07,20.30
2016,07,24,09,08,20.30
2016,07,24,09,09,20.30
2016,07,24,09,10,20.30
2016,07,24,09,11,20.20
2016,07,24,09,12,20.20
2016,07,24,09,13,20.20
2016,07,24,09,14,20.20
2016,07,24,09,15,20.30
2016,07,24,09,16,20.30
2016,07,24,09,17,20.40
2016,07,24,09,18,20.40
2016,07,24,09,19,20.50
2016,07,24,09,20,20.50
2016,07,24,09,21,20.60
2016,07,24,09,22,20.70
2016,07,24,09,23,20.80
2016,07,24,09,24,20.80
2016,07,24,09,25,20.90
2016,07,24,09,26,20.90
2016,07,24,09,27,20.90
2016,07,24,09,28,21.00
2016,07,24,09,29,21.10
2016,07,24,09,30,21.20
2016,07,24,09,31,21.20
2016,07,24,09,32,21.20
2016,07,24,09,33,21.30
2016,07,24,09,34,21.30
2016,07,24,09,35,21.30
2016,07,24,09,36,21.30
2016,07,24,09,37,21.30
2016,07,24,09,38,21.20
2016,07,24,09,39,21.20
2016,07,24,09,40,21.10
2016,07,24,09,41,21.10
2016,07,24,09,42,21.00
2016,07,24,09,43,21.00
2016,07,24,09,44,21.00
2016,07,24,09,45,21.00
2016,07,24,09,46,21.10
2016,07,24,09,47,21.10
2016,07,24,09,48,21.20
2016,07,24,09,49,21.20
2016,07,24,09,50,21.30
2016,07,24,09,51,21.40
2016,07,24,09,52,21.50
2016,07,24,09,53,21.60
2016,07,24,09,54,21.70
2016,07,24,09,55,21.80
2016,07,24,09,56,21.90
2016,07,24,09,57,22.00
2016,07,24,09,58,22.10
2016,07,24,09,59,22.10
2016,07,24,10,00,22.10
2016,07,24,10,01,22.20
2016,07,24,10,02,22.20
2016,07,24,10,03,22.20
2016,07,24,10,04,22.20
2016,07,24,10,05,22.10
2016,07,24,10,06,22.10
2016,07,24,10,07,22.10
2016,07,24,10,08,22.10
2016,07,24,10,09,22.10
2016,07,24,10,10,22.20
2016,07,24,10,11,22.20
2016,07,24,10,12,22.20
2016,07,24,10,13,22.20
2016,07,24,10,14,22.20
2016,07,24,10,15,22.30
2016,07,24,10,16,22.30
2016,07,24,10,17,22.30
2016,07,24,10,18,22.30
2016,07,24,10,19,22.40
2016,07,24,10,20,22.30
2016,07,24,10,21,22.40
2016,07,24,10,22,22.50
2016,07,24,10,23,22.50
2016,07,24,10,24,22.60
2016,07,24,10,25,22.70
2016,07,24,10,26,22.80
2016,07,24,10,27,22.70
2016,07,24,10,28,22.80
2016,07,24,10,29,22.80
2016,07,24,10,30,22.80
2016,07,24,10,31,22.80
2016,07,24,10,32,22.80
2016,07,24,10,33,22.80
2016,07,24,10,34,22.80
2016,07,24,10,35,22.70
2016,07,24,10,36,22.70
2016,07,24,10,37,22.70
2016,07,24,10,38,22.70
2016,07,24,10,39,22.50
2016,07,24,10,40,22.50
2016,07,24,10,41,22.50
2016,07,24,10,42,22.50
2016,07,24,10,43,22.50
2016,07,24,10,44,22.50
2016,07,24,10,45,22.50
2016,07,24,10,46,22.60
2016,07,24,10,47,22.70
2016,07,24,10,48,22.70
2016,07,24,10,49,22.70
2016,07,24,10,50,22.70
2016,07,24,10,51,22.80
2016,07,24,10,52,22.80
2016,07,24,10,53,22.70
2016,07,24,10,54,22.70
2016,07,24,10,55,22.80
2016,07,24,10,56,22.80
2016,07,24,10,57,22.90
2016,07,24,10,58,22.90
2016,07,24,10,59,23.00
2016,07,24,11,00,23.00
2016,07,24,11,01,23.10
2016,07,24,11,02,23.10
2016,07,24,11,03,23.20
2016,07,24,11,04,23.20
2016,07,24,11,05,23.30
2016,07,24,11,06,23.30
2016,07,24,11,07,23.30
2016,07,24,11,08,23.40
2016,07,24,11,09,23.40
2016,07,24,11,10,23.50
2016,07,24,11,11,23.40
2016,07,24,11,12,23.40
2016,07,24,11,13,23.30
2016,07,24,11,14,23.30
2016,07,24,11,15,23.20
2016,07,24,11,16,23.20
2016,07,24,11,17,23.20
2016,07,24,11,18,23.10
2016,07,24,11,19,23.10
2016,07,24,11,20,23.00
2016,07,24,11,21,23.10
2016,07,24,11,22,23.20
2016,07,24,11,23,23.20
2016,07,24,11,24,23.10
2016,07,24,11,25,23.00
2016,07,24,11,26,23.00
2016,07,24,11,27,22.90
2016,07,24,11,28,22.90
2016,07,24,11,29,22.80
2016,07,24,11,30,22.80
2016,07,24,11,31,22.80
2016,07,24,11,32,22.80
2016,07,24,11,33,22.70
2016,07,24,11,34,22.60
2016,07,24,11,35,22.60
2016,07,24,11,36,22.60
2016,07,24,11,37,22.70
2016,07,24,11,38,22.80
2016,07,24,11,39,22.90
2016,07,24,11,40,23.00
2016,07,24,11,41,23.00
2016,07,24,11,42,23.00
2016,07,24,11,43,23.10
2016,07,24,11,44,23.10
2016,07,24,11,45,23.20
2016,07,24,11,46,23.30
2016,07,24,11,47,23.50
2016,07,24,11,48,23.70
2016,07,24,11,49,23.70
2016,07,24,11,50,23.70
2016,07,24,11,51,23.70
2016,07,24,11,52,23.60
2016,07,24,11,53,23.60
2016,07,24,11,54,23.60
2016,07,24,11,55,23.70
2016,07,24,11,56,23.70
2016,07,24,11,57,23.60
2016,07,24,11,58,23.60
2016,07,24,11,59,23.60
2016,07,24,12,00,23.50
2016,07,24,12,01,23.40
2016,07,24,12,02,23.30
2016,07,24,12,03,23.20
2016,07,24,12,04,23.20
2016,07,24,12,05,23.20
2016,07,24,12,06,23.30
2016,07,24,12,07,23.30
2016,07,24,12,08,23.30
2016,07,24,12,09,23.30
2016,07,24,12,10,23.40
2016,07,24,12,11,23.40
2016,07,24,12,12,23.40
2016,07,24,12,13,23.40
2016,07,24,12,14,23.50
2016,07,24,12,15,23.50
2016,07,24,12,16,23.50
2016,07,24,12,17,23.60
2016,07,24,12,18,23.70
2016,07,24,12,19,23.70
2016,07,24,12,20,23.50
2016,07,24,12,21,23.30
2016,07,24,12,22,23.30
2016,07,24,12,23,23.30
2016,07,24,12,24,23.30
2016,07,24,12,25,23.30
2016,07,24,12,26,23.30
2016,07,24,12,27,23.30
2016,07,24,12,28,23.30
2016,07,24,12,29,23.40
2016,07,24,12,30,23.50
2016,07,24,12,31,23.60
2016,07,24,12,32,23.70
2016,07,24,12,33,23.90
2016,07,24,12,34,23.90
2016,07,24,12,35,23.90
2016,07,24,12,36,23.80
2016,07,24,12,37,23.80
2016,07,24,12,38,23.80
2016,07,24,12,39,23.80
2016,07,24,12,40,23.70
2016,07,24,12,41,23.60
2016,07,24,12,42,23.40
2016,07,24,12,43,23.30
2016,07,24,12,44,23.30
2016,07,24,12,45,23.40
2016,07,24,12,46,23.40
2016,07,24,12,47,23.40
2016,07,24,12,48,23.50
2016,07,24,12,49,23.60
2016,07,24,12,50,23.60
2016,07,24,12,51,23.50
2016,07,24,12,52,23.40
2016,07,24,12,53,23.50
2016,07,24,12,54,23.50
2016,07,24,12,55,23.60
2016,07,24,12,56,23.60
2016,07,24,12,57,23.70
2016,07,24,12,58,23.60
2016,07,24,12,59,23.60
2016,07,24,13,00,23.60
2016,07,24,13,01,23.60
2016,07,24,13,02,23.70
2016,07,24,13,03,23.60
2016,07,24,13,04,23.60
2016,07,24,13,05,23.60
2016,07,24,13,06,23.60
2016,07,24,13,07,23.60
2016,07,24,13,08,23.60
2016,07,24,13,09,23.50
2016,07,24,13,10,23.50
2016,07,24,13,11,23.30
2016,07,24,13,12,23.30
2016,07,24,13,13,23.30
2016,07,24,13,14,23.30
2016,07,24,13,15,23.30
2016,07,24,13,16,23.30
2016,07,24,13,17,23.30
2016,07,24,13,18,23.30
2016,07,24,13,19,23.30
2016,07,24,13,20,23.30
2016,07,24,13,21,23.40
2016,07,24,13,22,23.40
2016,07,24,13,23,23.50
2016,07,24,13,24,23.60
2016,07,24,13,25,23.60
2016,07,24,13,26,23.60
2016,07,24,13,27,23.60
2016,07,24,13,28,23.60
2016,07,24,13,29,23.60
2016,07,24,13,30,23.80
2016,07,24,13,31,24.00
2016,07,24,13,32,24.10
2016,07,24,13,33,24.20
2016,07,24,13,34,24.30
2016,07,24,13,35,24.40
2016,07,24,13,36,24.50
2016,07,24,13,37,24.50
2016,07,24,13,38,24.40
2016,07,24,13,39,24.30
2016,07,24,13,40,24.30
2016,07,24,13,41,24.20
2016,07,24,13,42,24.10
2016,07,24,13,43,24.10
2016,07,24,13,44,23.90
2016,07,24,13,45,23.90
2016,07,24,13,46,23.80
2016,07,24,13,47,23.90
2016,07,24,13,48,24.00
2016,07,24,13,49,24.10
2016,07,24,13,50,24.20
2016,07,24,13,51,24.20
2016,07,24,13,52,24.10
2016,07,24,13,53,24.00
2016,07,24,13,54,23.90
2016,07,24,13,55,23.90
2016,07,24,13,56,23.90
2016,07,24,13,57,23.90
2016,07,24,13,58,24.00
2016,07,24,13,59,23.90
2016,07,24,14,00,23.90
2016,07,24,14,01,23.90
2016,07,24,14,02,23.80
2016,07,24,14,03,23.80
2016,07,24,14,04,23.90
2016,07,24,14,05,23.90
2016,07,24,14,06,23.80
2016,07,24,14,07,23.90
2016,07,24,14,08,24.10
2016,07,24,14,09,24.20
2016,07,24,14,10,24.30
2016,07,24,14,11,24.40
2016,07,24,14,12,24.50
2016,07,24,14,13,24.70
2016,07,24,14,14,24.80
2016,07,24,14,15,25.00
2016,07,24,14,16,25.10
2016,07,24,14,17,25.10
2016,07,24,14,18,25.00
2016,07,24,14,19,24.90
2016,07,24,14,20,24.80
2016,07,24,14,21,24.60
2016,07,24,14,22,24.60
2016,07,24,14,23,24.60
2016,07,24,14,24,24.60
2016,07,24,14,25,24.50
2016,07,24,14,26,24.40
2016,07,24,14,27,24.40
2016,07,24,14,28,24.60
2016,07,24,14,29,24.70
2016,07,24,14,30,24.70
2016,07,24,14,31,24.80
2016,07,24,14,32,24.90
2016,07,24,14,33,25.00
2016,07,24,14,34,24.90
2016,07,24,14,35,24.90
2016,07,24,14,36,24.80
2016,07,24,14,37,24.70
2016,07,24,14,38,24.70
2016,07,24,14,39,24.70
2016,07,24,14,40,24.70
2016,07,24,14,41,24.70
2016,07,24,14,42,24.60
2016,07,24,14,43,24.60
2016,07,24,14,44,24.70
2016,07,24,14,45,24.80
2016,07,24,14,46,24.80
2016,07,24,14,47,24.80
2016,07,24,14,48,24.90
2016,07,24,14,49,25.10
2016,07,24,14,50,25.20
2016,07,24,14,51,25.10
2016,07,24,14,52,25.10
2016,07,24,14,53,25.10
2016,07,24,14,54,25.10
2016,07,24,14,55,25.10
2016,07,24,14,56,25.10
2016,07,24,14,57,25.00
2016,07,24,14,58,24.90
2016,07,24,14,59,24.80
2016,07,24,15,00,24.70
2016,07,24,15,01,24.80
2016,07,24,15,02,24.90
2016,07,24,15,03,25.00
2016,07,24,15,04,25.20
2016,07,24,15,05,25.20
2016,07,24,15,06,25.00
2016,07,24,15,07,24.90
2016,07,24,15,08,24.70
2016,07,24,15,09,24.70
2016,07,24,15,10,24.80
2016,07,24,15,11,24.90
2016,07,24,15,12,25.00
2016,07,24,15,13,25.00
2016,07,24,15,14,25.10
2016,07,24,15,15,25.10
2016,07,24,15,16,25.10
2016,07,24,15,17,25.10
2016,07,24,15,18,25.10
2016,07,24,15,19,25.10
2016,07,24,15,20,25.20
2016,07,24,15,21,25.20
2016,07,24,15,22,25.20
2016,07,24,15,23,25.30
2016,07,24,15,24,25.40
2016,07,24,15,25,25.60
2016,07,24,15,26,25.70
2016,07,24,15,27,25.70
2016,07,24,15,28,25.60
2016,07,24,15,29,25.50
2016,07,24,15,30,25.50
2016,07,24,15,31,25.50
2016,07,24,15,32,25.40
2016,07,24,15,33,25.50
2016,07,24,15,34,25.60
2016,07,24,15,35,25.70
2016,07,24,15,36,25.80
2016,07,24,15,37,26.00
2016,07,24,15,38,26.10
2016,07,24,15,39,26.20
2016,07,24,15,40,26.20
2016,07,24,15,41,26.20
2016,07,24,15,42,26.30
2016,07,24,15,43,26.20
2016,07,24,15,44,26.10
2016,07,24,15,45,26.00
2016,07,24,15,46,26.00
2016,07,24,15,47,25.90
2016,07,24,15,48,25.80
2016,07,24,15,49,25.70
2016,07,24,15,50,25.70
2016,07,24,15,51,25.70
2016,07,24,15,52,25.70
2016,07,24,15,53,25.70
2016,07,24,15,54,25.80
2016,07,24,15,55,25.90
2016,07,24,15,56,26.00
2016,07,24,15,57,26.10
2016,07,24,15,58,26.10
2016,07,24,15,59,25.90
2016,07,24,16,00,25.80
2016,07,24,16,01,25.70
2016,07,24,16,02,25.70
2016,07,24,16,03,25.70
2016,07,24,16,04,25.80
2016,07,24,16,05,25.90
2016,07,24,16,06,25.90
2016,07,24,16,07,26.00
2016,07,24,16,08,26.10
2016,07,24,16,09,26.20
2016,07,24,16,10,26.30
2016,07,24,16,11,26.40
2016,07,24,16,12,26.50
2016,07,24,16,13,26.50
2016,07,24,16,14,26.50
2016,07,24,16,15,26.40
2016,07,24,16,16,26.40
2016,07,24,16,17,26.30
2016,07,24,16,18,26.30
2016,07,24,16,19,26.30
2016,07,24,16,20,26.30
2016,07,24,16,21,26.30
2016,07,24,16,22,26.30
2016,07,24,16,23,26.20
2016,07,24,16,24,26.20
2016,07,24,16,25,26.20
2016,07,24,16,26,26.20
2016,07,24,16,27,26.20
2016,07,24,16,28,26.20
2016,07,24,16,29,26.20
2016,07,24,16,30,26.10
2016,07,24,16,31,26.00
2016,07,24,16,32,26.10
2016,07,24,16,33,26.10
2016,07,24,16,34,26.30
2016,07,24,16,35,26.40
2016,07,24,16,36,26.50
2016,07,24,16,37,26.60
2016,07,24,16,38,26.60
2016,07,24,16,39,26.50
2016,07,24,16,40,26.50
2016,07,24,16,41,26.50
2016,07,24,16,42,26.60
2016,07,24,16,43,26.60
2016,07,24,16,44,26.70
2016,07,24,16,45,26.60
2016,07,24,16,46,26.50
2016,07,24,16,47,26.40
2016,07,24,16,48,26.50
2016,07,24,16,49,26.60
2016,07,24,16,50,26.70
2016,07,24,16,51,26.70
2016,07,24,16,52,26.70
2016,07,24,16,53,26.70
2016,07,24,16,54,26.70
2016,07,24,16,55,26.70
2016,07,24,16,56,26.60
2016,07,24,16,57,26.60
2016,07,24,16,58,26.50
2016,07,24,16,59,26.50
2016,07,24,17,00,26.40
2016,07,24,17,01,26.40
2016,07,24,17,02,26.30
2016,07,24,17,03,26.20
2016,07,24,17,04,26.20
2016,07,24,17,05,26.20
2016,07,24,17,06,26.20
2016,07,24,17,07,26.20
2016,07,24,17,08,26.20
2016,07,24,17,09,26.20
2016,07,24,17,10,26.10
2016,07,24,17,11,26.10
2016,07,24,17,12,26.00
2016,07,24,17,13,26.00
2016,07,24,17,14,26.00
2016,07,24,17,15,26.00
2016,07,24,17,16,25.90
2016,07,24,17,17,25.90
2016,07,24,17,18,25.90
2016,07,24,17,19,26.00
2016,07,24,17,20,26.00
2016,07,24,17,21,26.10
2016,07,24,17,22,26.10
2016,07,24,17,23,26.20
2016,07,24,17,24,26.20
2016,07,24,17,25,26.30
2016,07,24,17,26,26.30
2016,07,24,17,27,26.40
2016,07,24,17,28,26.40
2016,07,24,17,29,26.40
2016,07,24,17,30,26.40
2016,07,24,17,31,26.30
2016,07,24,17,32,26.30
2016,07,24,17,33,26.30
2016,07,24,17,34,26.30
2016,07,24,17,35,26.20
2016,07,24,17,36,26.10
2016,07,24,17,37,26.10
2016,07,24,17,38,26.00
2016,07,24,17,39,26.00
2016,07,24,17,40,25.90
2016,07,24,17,41,25.90
2016,07,24,17,42,25.90
2016,07,24,17,43,26.00
2016,07,24,17,44,26.00
2016,07,24,17,45,26.00
2016,07,24,17,46,26.10
2016,07,24,17,47,26.10
2016,07,24,17,48,26.20
2016,07,24,17,49,26.30
2016,07,24,17,50,26.30
2016,07,24,17,51,26.30
2016,07,24,17,52,26.30
2016,07,24,17,53,26.30
2016,07,24,17,54,26.20
2016,07,24,17,55,26.10
2016,07,24,17,56,26.00
2016,07,24,17,57,26.00
2016,07,24,17,58,26.10
2016,07,24,17,59,26.10
2016,07,24,18,00,26.20
2016,07,24,18,01,26.20
2016,07,24,18,02,26.20
2016,07,24,18,03,26.20
2016,07,24,18,04,26.20
2016,07,24,18,05,26.20
2016,07,24,18,06,26.20
2016,07,24,18,07,26.20
2016,07,24,18,08,26.20
2016,07,24,18,09,26.20
2016,07,24,18,10,26.10
2016,07,24,18,11,26.10
2016,07,24,18,12,26.00
2016,07,24,18,13,26.00
2016,07,24,18,14,25.90
2016,07,24,18,15,25.90
2016,07,24,18,16,25.90
2016,07,24,18,17,25.90
2016,07,24,18,18,25.90
2016,07,24,18,19,26.00
2016,07,24,18,20,26.00
2016,07,24,18,21,26.00
2016,07,24,18,22,25.90
2016,07,24,18,23,25.90
2016,07,24,18,24,25.90
2016,07,24,18,25,25.90
2016,07,24,18,26,25.90
2016,07,24,18,27,25.90
2016,07,24,18,28,25.90
2016,07,24,18,29,25.90
2016,07,24,18,30,25.90
2016,07,24,18,31,25.90
2016,07,24,18,32,25.90
2016,07,24,18,33,25.80
2016,07,24,18,34,25.80
2016,07,24,18,35,25.80
2016,07,24,18,36,25.80
2016,07,24,18,37,25.80
2016,07,24,18,38,25.80
2016,07,24,18,39,25.80
2016,07,24,18,40,25.80
2016,07,24,18,41,25.80
2016,07,24,18,42,25.80
2016,07,24,18,43,25.80
2016,07,24,18,44,25.80
2016,07,24,18,45,25.80
2016,07,24,18,46,25.80
2016,07,24,18,47,25.80
2016,07,24,18,48,25.80
2016,07,24,18,49,25.80
2016,07,24,18,50,25.80
2016,07,24,18,51,25.90
2016,07,24,18,52,25.90
2016,07,24,18,53,25.90
2016,07,24,18,54,26.00
2016,07,24,18,55,26.00
2016,07,24,18,56,26.00
2016,07,24,18,57,26.00
2016,07,24,18,58,26.10
2016,07,24,18,59,26.10
2016,07,24,19,00,26.10
2016,07,24,19,01,26.20
2016,07,24,19,02,26.20
2016,07,24,19,03,26.20
2016,07,24,19,04,26.20
2016,07,24,19,05,26.20
2016,07,24,19,06,26.20
2016,07,24,19,07,26.10
2016,07,24,19,08,26.10
2016,07,24,19,09,26.10
2016,07,24,19,10,26.10
2016,07,24,19,11,26.20
2016,07,24,19,12,26.10
2016,07,24,19,13,26.10
2016,07,24,19,14,26.10
2016,07,24,19,15,26.10
2016,07,24,19,16,26.00
2016,07,24,19,17,26.00
2016,07,24,19,18,26.00
2016,07,24,19,19,26.00
2016,07,24,19,20,25.90
2016,07,24,19,21,25.90
2016,07,24,19,22,25.90
2016,07,24,19,23,25.90
2016,07,24,19,24,26.00
2016,07,24,19,25,26.00
2016,07,24,19,26,26.10
2016,07,24,19,27,26.20
2016,07,24,19,28,26.20
2016,07,24,19,29,26.20
2016,07,24,19,30,26.20
2016,07,24,19,31,26.10
2016,07,24,19,32,26.00
2016,07,24,19,33,25.90
2016,07,24,19,34,25.80
2016,07,24,19,35,25.70
2016,07,24,19,36,25.60
2016,07,24,19,37,25.50
2016,07,24,19,38,25.50
2016,07,24,19,39,25.40
2016,07,24,19,40,25.40
2016,07,24,19,41,25.40
2016,07,24,19,42,25.30
2016,07,24,19,43,25.30
2016,07,24,19,44,25.20
2016,07,24,19,45,25.20
2016,07,24,19,46,25.10
2016,07,24,19,47,25.00
2016,07,24,19,48,25.00
2016,07,24,19,49,24.80
2016,07,24,19,50,24.80
2016,07,24,19,51,24.60
2016,07,24,19,52,24.50
2016,07,24,19,53,24.40
2016,07,24,19,54,24.40
2016,07,24,19,55,24.30
2016,07,24,19,56,24.30
2016,07,24,19,57,24.20
2016,07,24,19,58,24.10
2016,07,24,19,59,24.10
2016,07,24,20,00,24.00
2016,07,24,20,01,23.90
2016,07,24,20,02,23.80
2016,07,24,20,03,23.80
2016,07,24,20,04,23.70
2016,07,24,20,05,23.70
2016,07,24,20,06,23.60
2016,07,24,20,07,23.60
2016,07,24,20,08,23.50
2016,07,24,20,09,23.50
2016,07,24,20,10,23.40
2016,07,24,20,11,23.30
2016,07,24,20,12,23.20
2016,07,24,20,13,23.10
2016,07,24,20,14,23.00
2016,07,24,20,15,22.90
2016,07,24,20,16,22.90
2016,07,24,20,17,22.80
2016,07,24,20,18,22.80
2016,07,24,20,19,22.70
2016,07,24,20,20,22.70
2016,07,24,20,21,22.70
2016,07,24,20,22,22.60
2016,07,24,20,23,22.60
2016,07,24,20,24,22.60
2016,07,24,20,25,22.60
2016,07,24,20,26,22.50
2016,07,24,20,27,22.50
2016,07,24,20,28,22.40
2016,07,24,20,29,22.40
2016,07,24,20,30,22.30
2016,07,24,20,31,22.20
2016,07,24,20,32,22.20
2016,07,24,20,33,22.10
2016,07,24,20,34,22.10
2016,07,24,20,35,22.00
2016,07,24,20,36,21.90
2016,07,24,20,37,21.80
2016,07,24,20,38,21.80
2016,07,24,20,39,21.70
2016,07,24,20,40,21.60
2016,07,24,20,41,21.60
2016,07,24,20,42,21.50
2016,07,24,20,43,21.50
2016,07,24,20,44,21.40
2016,07,24,20,45,21.40
2016,07,24,20,46,21.30
2016,07,24,20,47,21.30
2016,07,24,20,48,21.20
2016,07,24,20,49,21.20
2016,07,24,20,50,21.20
2016,07,24,20,51,21.10
2016,07,24,20,52,21.10
2016,07,24,20,53,21.10
2016,07,24,20,54,21.00
2016,07,24,20,55,21.00
2016,07,24,20,56,20.90
2016,07,24,20,57,20.90
2016,07,24,20,58,20.80
2016,07,24,20,59,20.80
2016,07,24,21,00,20.80
2016,07,24,21,01,20.80
2016,07,24,21,02,20.70
2016,07,24,21,03,20.70
2016,07,24,21,04,20.70
2016,07,24,21,05,20.70
2016,07,24,21,06,20.60
2016,07,24,21,07,20.60
2016,07,24,21,08,20.50
2016,07,24,21,09,20.50
2016,07,24,21,10,20.40
2016,07,24,21,11,20.40
2016,07,24,21,12,20.40
2016,07,24,21,13,20.40
2016,07,24,21,14,20.30
2016,07,24,21,15,20.30
2016,07,24,21,16,20.30
2016,07,24,21,17,20.30
2016,07,24,21,18,20.20
2016,07,24,21,19,20.20
2016,07,24,21,20,20.20
2016,07,24,21,21,20.20
2016,07,24,21,22,20.10
2016,07,24,21,23,20.10
2016,07,24,21,24,20.10
2016,07,24,21,25,20.00
2016,07,24,21,26,20.00
2016,07,24,21,27,19.90
2016,07,24,21,28,19.90
2016,07,24,21,29,19.90
2016,07,24,21,30,19.90
2016,07,24,21,31,19.90
2016,07,24,21,32,19.80
2016,07,24,21,33,19.80
2016,07,24,21,34,19.80
2016,07,24,21,35,19.80
2016,07,24,21,36,19.80
2016,07,24,21,37,19.80
2016,07,24,21,38,19.80
2016,07,24,21,39,19.80
2016,07,24,21,40,19.70
2016,07,24,21,41,19.70
2016,07,24,21,42,19.70
2016,07,24,21,43,19.70
2016,07,24,21,44,19.70
2016,07,24,21,45,19.60
2016,07,24,21,46,19.60
2016,07,24,21,47,19.50
2016,07,24,21,48,19.50
2016,07,24,21,49,19.50
2016,07,24,21,50,19.40
2016,07,24,21,51,19.40
2016,07,24,21,52,19.30
2016,07,24,21,53,19.30
2016,07,24,21,54,19.30
2016,07,24,21,55,19.30
2016,07,24,21,56,19.20
2016,07,24,21,57,19.20
2016,07,24,21,58,19.20
2016,07,24,21,59,19.10
2016,07,24,22,00,19.10
2016,07,24,22,01,19.10
2016,07,24,22,02,19.10
2016,07,24,22,03,19.00
2016,07,24,22,04,19.00
2016,07,24,22,05,19.00
2016,07,24,22,06,18.90
2016,07,24,22,07,18.90
2016,07,24,22,08,18.90
2016,07,24,22,09,18.90
2016,07,24,22,10,18.80
2016,07,24,22,11,18.80
2016,07,24,22,12,18.80
2016,07,24,22,13,18.80
2016,07,24,22,14,18.70
2016,07,24,22,15,18.70
2016,07,24,22,16,18.70
2016,07,24,22,17,18.70
2016,07,24,22,18,18.70
2016,07,24,22,19,18.70
2016,07,24,22,20,18.60
2016,07,24,22,21,18.60
2016,07,24,22,22,18.60
2016,07,24,22,23,18.60